QPF
0.00 0.00 0.00 0.00 0.00 0.00 0.00 0.00 0.00 0.00 0.00 0.00 0.00 0.00 0.00 0.00 0.00 0.00 0.00 0.00 0.00 0.00 0.00 0.00 0.00 0.00 0.00 0.00 0.00 0.00 0.03 0.06 0.12 0.10 0.05 0.00 0.00 0.00 0.00 0.00 0.00 0.00 0.00 0.07
0.00 0.00 0.00 0.00 0.00 0.00 0.00 0.00 0.00 0.00 0.00 0.00 0.00 0.00 0.00 0.00 0.00 0.00 0.00 0.00 0.00 0.00 0.00 0.00 0.00 0.00 0.00 0.00 0.00 0.00 0.00 0.06 0.04 0.02 0.00 0.00 0.00 0.00 0.00 0.00 0.00 0.00 0.00 0.02
0.00 0.00 0.00 0.00 0.00 0.00 0.00 0.00 0.00 0.00 0.00 0.00 0.00 0.00 0.00 0.00 0.00 0.00 0.00 0.00 0.00 0.00 0.00 0.00 0.00 0.00 0.00 0.00 0.00 0.00 0.00 0.00 0.02 0.00 0.03 0.10 0.07 0.02 0.02 0.00 0.00 0.00 0.00 0.00
0.00 0.00 0.00 0.00 0.00 0.00 0.00 0.00 0.00 0.00 0.00 0.00 0.00 0.00 0.00 0.00 0.00 0.00 0.00 0.00 0.00 0.00 0.00 0.00 0.00 0.00 0.00 0.00 0.00 0.00 0.00 0.00 0.00 0.00 0.02 0.03 0.09 0.03 0.00 0.00 0.00 0.00 0.00 0.00
0.00 0.00 0.00 0.00 0.00 0.00 0.00 0.00 0.00 0.00 0.00 0.00 0.00 0.00 0.00 0.00 0.00 0.00 0.00 0.00 0.00 0.00 0.00 0.00 0.00 0.00 0.00 0.00 0.00 0.00 0.00 0.00 0.00 0.00 0.02 0.02 0.10 0.11 0.08 0.02 0.01 0.03 0.00 0.00
0.00 0.00 0.00 0.00 0.00 0.00 0.00 0.00 0.00 0.00 0.00 0.00 0.00 0.00 0.00 0.00 0.00 0.00 0.00 0.00 0.00 0.00 0.00 0.00 0.00 0.00 0.00 0.00 0.00 0.00 0.00 0.00 0.00 0.00 0.00 0.01 0.03 0.11 0.03 0.07 0.05 0.04 0.00 0.00
0.00 0.00 0.00 0.00 0.00 0.00 0.00 0.00 0.00 0.00 0.00 0.00 0.00 0.00 0.00 0.00 0.00 0.00 0.00 0.00 0.00 0.00 0.00 0.00 0.00 0.00 0.00 0.00 0.00 0.00 0.00 0.00 0.00 0.00 0.00 0.00 0.02 0.03 0.05 0.06 0.03 0.02 0.00 0.00
0.00 0.00 0.00 0.00 0.00 0.00 0.00 0.00 0.00 0.00 0.00 0.00 0.00 0.00 0.00 0.00 0.00 0.00 0.00 0.00 0.00 0.00 0.00 0.00 0.00 0.00 0.00 0.00 0.00 0.00 0.00 0.00 0.00 0.00 0.00 0.00 0.01 0.02 0.01 0.00 0.03 0.01 0.00 0.00
0.00 0.00 0.00 0.00 0.00 0.00 0.00 0.00 0.00 0.00 0.00 0.00 0.00 0.00 0.00 0.00 0.00 0.00 0.00 0.00 0.00 0.00 0.00 0.00 0.00 0.00 0.00 0.00 0.00 0.00 0.00 0.00 0.00 0.00 0.00 0.00 0.00 0.00 0.00 0.00 0.01 0.00 0.00 0.00
0.00 0.00 0.00 0.00 0.00 0.00 0.00 0.00 0.00 0.00 0.00 0.00 0.00 0.00 0.00 0.00 0.00 0.00 0.00 0.00 0.00 0.00 0.00 0.00 0.00 0.00 0.00 0.00 0.00 0.00 0.00 0.00 0.00 0.00 0.00 0.00 0.00 0.00 0.00 0.00 0.01 0.00 0.00 0.00
0.00 0.00 0.00 0.00 0.00 0.00 0.00 0.00 0.00 0.00 0.00 0.00 0.00 0.00 0.00 0.00 0.00 0.00 0.00 0.00 0.00 0.00 0.00 0.00 0.00 0.00 0.00 0.00 0.00 0.00 0.00 0.00 0.00 0.00 0.00 0.00 0.00 0.00 0.00 0.00 0.00 0.00 0.00 0.00
0.00 0.00 0.00 0.00 0.00 0.00 0.00 0.00 0.00 0.00 0.00 0.00 0.00 0.00 0.00 0.00 0.00 0.00 0.00 0.00 0.00 0.00 0.00 0.00 0.00 0.00 0.00 0.00 0.00 0.00 0.00 0.00 0.00 0.00 0.00 0.00 0.00 0.00 0.00 0.00 0.00 0.00 0.00 0.00
0.00 0.00 0.00 0.00 0.00 0.00 0.00 0.00 0.00 0.00 0.00 0.00 0.00 0.00 0.00 0.00 0.00 0.00 0.00 0.00 0.00 0.00 0.00 0.00 0.00 0.00 0.00 0.00 0.00 0.00 0.00 0.00 0.00 0.00 0.00 0.00 0.00 0.00 0.00 0.00 0.00 0.00 0.00 0.00
0.00 0.00 0.00 0.00 0.00 0.00 0.00 0.00 0.00 0.00 0.00 0.00 0.00 0.00 0.00 0.00 0.00 0.00 0.00 0.00 0.00 0.00 0.00 0.00 0.00 0.00 0.00 0.00 0.00 0.00 0.00 0.00 0.00 0.00 0.00 0.00 0.00 0.00 0.00 0.00 0.00 0.00 0.00 0.00
0.00 0.00 0.00 0.00 0.00 0.00 0.00 0.00 0.00 0.00 0.00 0.00 0.00 0.00 0.00 0.00 0.00 0.00 0.00 0.00 0.00 0.00 0.00 0.00 0.00 0.00 0.00 0.00 0.00 0.00 0.00 0.00 0.00 0.00 0.00 0.00 0.00 0.00 0.00 0.00 0.00 0.00 0.00 0.00
0.00 0.00 0.00 0.00 0.00 0.00 0.00 0.00 0.00 0.00 0.00 0.00 0.00 0.00 0.00 0.00 0.00 0.00 0.00 0.00 0.00 0.00 0.00 0.00 0.00 0.00 0.00 0.00 0.00 0.00 0.00 0.00 0.00 0.00 0.00 0.00 0.00 0.00 0.00 0.00 0.00 0.00 0.00 0.00
0.00 0.00 0.00 0.00 0.00 0.00 0.00 0.00 0.00 0.00 0.00 0.00 0.00 0.00 0.00 0.00 0.00 0.00 0.00 0.00 0.00 0.00 0.00 0.00 0.00 0.00 0.00 0.00 0.00 0.00 0.00 0.00 0.00 0.00 0.00 0.00 0.00 0.00 0.00 0.00 0.00 0.00 0.00 0.00
0.00 0.00 0.00 0.00 0.00 0.00 0.00 0.00 0.00 0.00 0.00 0.00 0.00 0.00 0.00 0.00 0.00 0.00 0.00 0.00 0.00 0.00 0.00 0.00 0.00 0.00 0.00 0.00 0.00 0.00 0.00 0.00 0.03 0.05 0.03 0.01 0.00 0.00 0.00 0.00 0.00 0.00 0.00 0.00
0.00 0.00 0.00 0.00 0.00 0.00 0.00 0.00 0.00 0.00 0.00 0.00 0.00 0.00 0.00 0.00 0.00 0.01 0.03 0.01 0.00 0.00 0.00 0.00 0.00 0.00 0.00 0.00 0.00 0.00 0.03 0.08 0.15 0.20 0.21 0.10 0.01 0.00 0.01 0.00 0.00 0.00 0.00 0.00
0.00 0.00 0.00 0.00 0.00 0.00 0.00 0.00 0.00 0.00 0.00 0.00 0.00 0.00 0.00 0.00 0.00 0.01 0.01 0.01 0.00 0.00 0.00 0.00 0.00 0.00 0.00 0.00 0.00 0.00 0.00 0.02 0.16 0.28 0.26 0.16 0.02 0.00 0.01 0.01 0.01 0.01 0.01 0.01
0.00 0.00 0.00 0.00 0.00 0.00 0.00 0.00 0.00 0.00 0.00 0.00 0.00 0.00 0.00 0.00 0.00 0.00 0.00 0.00 0.00 0.00 0.00 0.00 0.00 0.00 0.00 0.00 0.00 0.00 0.00 0.00 0.01 0.05 0.12 0.07 0.01 0.01 0.01 0.01 0.01 0.01 0.01 0.02
0.00 0.00 0.00 0.00 0.00 0.00 0.00 0.00 0.00 0.00 0.00 0.00 0.00 0.00 0.00 0.00 0.00 0.00 0.00 0.00 0.00 0.00 0.00 0.00 0.00 0.00 0.00 0.00 0.00 0.00 0.00 0.00 0.00 0.00 0.01 0.03 0.03 0.01 0.01 0.01 0.01 0.00 0.00 0.01
0.00 0.00 0.00 0.00 0.00 0.00 0.00 0.00 0.00 0.00 0.00 0.00 0.00 0.00 0.00 0.00 0.00 0.00 0.00 0.00 0.00 0.00 0.00 0.00 0.00 0.00 0.00 0.00 0.00 0.00 0.00 0.00 0.00 0.00 0.00 0.01 0.07 0.16 0.19 0.21 0.12 0.00 0.01 0.00
0.00 0.00 0.00 0.00 0.00 0.00 0.00 0.00 0.00 0.00 0.00 0.00 0.00 0.00 0.00 0.00 0.00 0.00 0.00 0.00 0.00 0.00 0.00 0.00 0.00 0.00 0.00 0.00 0.00 0.00 0.00 0.00 0.00 0.00 0.00 0.01 0.17 0.32 0.28 0.32 0.16 0.01 0.00 0.00
0.00 0.00 0.00 0.00 0.00 0.00 0.00 0.00 0.00 0.00 0.00 0.00 0.00 0.00 0.00 0.00 0.00 0.00 0.00 0.00 0.00 0.00 0.00 0.00 0.00 0.00 0.00 0.00 0.00 0.00 0.00 0.00 0.00 0.00 0.00 0.00 0.10 0.17 0.35 0.24 0.36 0.29 0.18 0.13
0.00 0.00 0.00 0.00 0.00 0.00 0.00 0.00 0.00 0.00 0.00 0.00 0.00 0.00 0.00 0.00 0.01 0.01 0.01 0.00 0.00 0.00 0.01 0.01 0.01 0.01 0.00 0.00 0.00 0.00 0.00 0.00 0.00 0.00 0.00 0.01 0.04 0.12 0.32 0.33 0.46 0.63 0.61 0.52
MSLP
1003.79 1003.20 1002.15 1001.34 1001.15 1001.66 1002.34 1002.18 1001.69 1001.43 1001.67 1001.91 1001.14 1000.64 1000.06 999.97 1000.17 1001.06 1001.56 1002.09 1002.73 1003.76 1004.59 1005.73 1006.64 1007.34 1007.85 1008.68 1010.04 1011.06 1011.87 1012.44 1013.49 1013.98 1014.26 1013.59 1014.18 1014.57 1014.99 1015.55 1015.61 1015.69 1015.94 1016.24
1002.92 1002.54 1002.02 1001.72 1002.21 1002.68 1002.35 1001.86 1001.39 1001.12 1001.35 1001.18 1000.32 999.96 999.34 999.07 999.27 999.80 1000.55 1001.00 1001.63 1002.45 1003.44 1004.80 1006.07 1006.78 1007.50 1008.25 1009.37 1010.48 1011.31 1012.40 1013.21 1013.65 1013.66 1013.50 1013.74 1014.17 1014.60 1014.86 1015.61 1015.81 1016.01 1016.16
1002.46 1001.51 1002.42 1002.47 1002.40 1002.27 1001.84 1001.45 1000.92 1001.27 1001.32 1000.19 999.82 998.63 998.87 998.98 999.37 999.48 999.72 999.98 1000.47 1001.20 1002.24 1003.62 1005.02 1006.00 1007.03 1007.96 1009.02 1010.07 1011.02 1011.93 1012.84 1012.62 1013.07 1013.44 1013.99 1014.11 1014.25 1014.72 1015.32 1015.47 1015.68 1015.79
1002.19 1001.85 1002.23 1002.38 1001.99 1001.77 1000.77 1000.69 1001.24 1001.45 1000.96 999.72 999.21 998.24 998.57 998.85 998.74 998.64 998.45 999.02 999.52 1000.34 1001.49 1002.47 1003.84 1005.12 1005.99 1007.16 1008.59 1009.57 1010.76 1011.38 1012.05 1012.55 1012.43 1013.46 1013.94 1013.67 1013.93 1014.24 1014.63 1014.78 1015.59 1015.69
1001.46 1001.85 1002.10 1001.91 1001.45 1001.38 1000.91 1001.31 1001.22 1001.08 1000.48 999.48 997.73 997.73 998.36 998.40 998.05 998.05 997.79 997.78 998.46 999.57 1000.53 1001.58 1002.88 1004.20 1005.12 1006.36 1007.80 1008.90 1010.18 1010.89 1011.33 1011.97 1012.26 1012.93 1013.64 1013.74 1013.79 1013.75 1013.88 1014.63 1015.06 1015.57
1001.86 1001.80 1001.77 1001.39 1001.40 1001.44 1001.49 1001.25 1000.63 999.92 998.90 997.83 997.80 997.85 996.92 997.79 998.30 998.16 998.05 998.04 998.33 999.12 999.99 1001.12 1002.25 1003.50 1004.53 1005.48 1006.84 1008.11 1009.39 1010.43 1011.10 1011.63 1012.09 1012.39 1012.88 1013.48 1013.63 1013.85 1013.79 1014.64 1014.43 1015.08
1000.79 1000.64 1000.90 1001.48 1001.15 1001.10 1001.25 1000.56 998.70 998.06 997.77 996.90 997.91 997.96 997.08 998.05 998.38 998.10 998.15 998.35 998.67 999.07 999.81 1000.73 1001.68 1002.71 1003.76 1004.53 1005.88 1007.23 1008.62 1009.82 1010.52 1011.11 1011.55 1011.95 1012.23 1012.83 1013.23 1013.57 1013.79 1013.70 1014.31 1014.50
999.52 999.67 1000.20 1000.54 1000.76 999.82 999.93 999.66 998.51 997.54 997.04 997.40 997.72 997.31 997.27 998.04 998.28 998.27 998.24 998.53 998.98 999.18 999.54 1000.31 1001.37 1002.23 1003.23 1004.04 1005.11 1006.61 1008.01 1009.00 1009.73 1010.34 1010.91 1011.52 1011.88 1012.36 1012.71 1013.16 1012.94 1013.13 1013.76 1014.09
1000.03 999.65 1000.38 1000.45 1000.25 1000.30 999.55 999.67 998.93 998.35 997.80 997.40 996.95 996.95 997.07 997.74 997.73 997.89 998.45 998.88 999.23 999.49 999.39 1000.04 1000.88 1001.78 1002.57 1003.52 1004.52 1006.11 1007.15 1008.20 1009.01 1009.46 1010.34 1011.00 1011.50 1011.81 1011.65 1012.28 1012.81 1012.98 1012.85 1013.12
1001.16 1000.47 999.94 1000.04 1000.54 1000.22 999.99 999.62 999.29 998.52 998.15 997.76 997.24 998.00 996.81 997.28 997.53 998.22 998.76 999.38 1000.03 1000.08 1000.16 999.94 1000.19 1001.13 1002.00 1002.89 1003.99 1005.52 1006.26 1007.16 1007.93 1008.50 1009.45 1010.13 1010.63 1011.12 1011.27 1011.61 1012.30 1012.36 1012.57 1012.84
1002.14 1001.43 1000.30 1000.10 999.72 999.07 999.41 999.61 999.50 999.03 998.78 998.15 997.66 997.67 998.35 998.46 998.46 999.30 999.93 1000.85 1001.26 1001.29 1001.17 1000.78 1000.27 1000.63 1001.56 1002.29 1003.28 1004.39 1005.54 1006.37 1007.16 1007.66 1008.27 1009.06 1009.72 1010.28 1010.86 1011.05 1011.49 1011.95 1012.20 1012.45
1002.86 1002.51 1000.80 999.90 999.39 999.28 999.67 999.91 1000.00 999.32 998.93 998.77 998.82 998.06 997.87 998.91 999.56 1000.43 1001.57 1002.16 1002.72 1002.79 1002.52 1001.79 1001.04 1001.20 1001.57 1002.20 1002.88 1003.71 1004.62 1005.44 1006.38 1006.83 1007.54 1008.25 1008.94 1009.44 1009.94 1010.42 1010.90 1011.47 1011.95 1012.20
1004.32 1003.17 1001.54 1000.14 999.22 998.84 999.52 1000.13 999.91 1000.24 999.96 999.44 999.14 998.37 998.81 1000.16 1001.11 1001.70 1002.31 1003.15 1003.52 1003.83 1003.78 1003.42 1003.03 1002.53 1002.64 1002.88 1003.06 1003.66 1004.41 1004.85 1005.44 1006.24 1006.85 1007.49 1008.08 1008.72 1009.07 1009.74 1010.17 1010.85 1011.40 1011.85
1006.44 1004.29 1003.03 1001.71 1000.69 1000.85 1000.92 1001.09 1001.23 1000.99 1000.50 999.96 999.58 999.04 999.36 1001.47 1002.80 1002.78 1003.39 1004.01 1004.46 1004.79 1004.87 1004.93 1004.74 1004.84 1004.48 1004.10 1003.87 1003.89 1004.34 1004.82 1005.13 1005.54 1006.02 1006.61 1007.25 1007.73 1008.24 1008.84 1009.58 1009.93 1010.55 1011.11
1005.90 1004.44 1003.82 1003.09 1002.70 1002.39 1002.11 1002.01 1001.89 1001.74 1001.66 1001.34 1001.06 1000.86 1000.86 1001.12 1002.71 1003.85 1004.47 1005.01 1005.29 1005.72 1005.86 1005.89 1005.72 1005.62 1005.53 1005.32 1005.08 1004.91 1004.83 1005.05 1005.14 1005.38 1005.64 1005.96 1006.53 1007.08 1007.61 1008.00 1008.78 1009.46 1009.94 1010.36
1005.61 1005.20 1005.00 1004.18 1003.70 1003.08 1002.59 1002.45 1002.27 1002.15 1002.17 1002.11 1002.09 1002.07 1002.55 1002.96 1003.83 1004.72 1005.43 1005.76 1006.37 1006.75 1006.80 1006.69 1006.38 1006.19 1006.00 1005.90 1005.74 1005.45 1005.30 1005.43 1005.52 1005.44 1005.55 1005.84 1006.19 1006.67 1007.10 1007.61 1008.12 1008.94 1009.46 1009.96
1006.22 1005.69 1005.25 1004.21 1003.70 1003.58 1003.17 1002.35 1002.50 1002.52 1003.10 1003.04 1003.17 1004.03 1004.86 1005.04 1005.53 1005.87 1006.62 1006.84 1007.37 1007.54 1007.54 1007.32 1006.88 1006.69 1006.51 1006.09 1005.91 1006.13 1005.56 1005.30 1005.55 1005.78 1005.92 1005.89 1005.94 1006.31 1006.77 1007.21 1007.71 1008.24 1008.79 1009.34
1006.15 1006.32 1006.12 1005.09 1004.82 1003.77 1002.99 1004.08 1004.46 1004.45 1004.56 1004.47 1005.16 1005.50 1006.01 1006.70 1007.04 1006.75 1007.12 1007.93 1008.07 1008.02 1007.96 1007.68 1007.33 1007.09 1006.72 1006.33 1006.21 1006.07 1005.69 1005.69 1004.90 1005.73 1005.83 1006.04 1005.93 1005.90 1006.27 1006.63 1007.02 1007.66 1008.19 1008.55
1006.25 1006.53 1005.98 1005.51 1004.66 1003.92 1003.97 1005.13 1005.51 1005.69 1005.59 1005.74 1006.44 1006.99 1007.25 1007.67 1007.70 1006.84 1007.75 1008.37 1008.22 1008.14 1007.95 1007.58 1007.43 1007.28 1006.99 1006.64 1006.28 1006.05 1005.31 1005.17 1006.01 1004.27 1005.71 1006.08 1005.60 1005.61 1005.67 1005.96 1006.34 1006.81 1007.39 1007.77
1006.64 1007.21 1007.39 1006.26 1005.74 1005.08 1005.30 1006.72 1007.18 1007.02 1006.65 1007.37 1008.11 1008.21 1008.27 1008.30 1007.59 1006.80 1007.43 1008.11 1008.11 1007.98 1007.76 1007.54 1007.34 1007.20 1006.69 1006.52 1006.40 1005.84 1005.57 1005.10 1004.83 1004.88 1005.20 1005.78 1005.08 1005.04 1005.06 1005.32 1005.60 1006.01 1006.52 1006.95
1006.88 1007.41 1006.87 1006.16 1005.89 1005.92 1006.98 1007.75 1007.69 1007.81 1008.38 1008.75 1008.73 1008.74 1008.80 1008.62 1008.48 1008.19 1007.90 1007.87 1007.88 1007.69 1007.58 1007.33 1007.16 1006.77 1006.51 1006.34 1006.31 1006.32 1006.00 1005.51 1005.25 1005.38 1005.73 1004.93 1004.45 1004.55 1004.51 1004.90 1005.10 1005.51 1005.98 1006.15
1007.44 1007.25 1006.69 1006.31 1006.57 1007.22 1008.31 1008.46 1008.66 1008.85 1008.88 1009.01 1009.11 1009.02 1008.89 1008.74 1008.46 1008.23 1007.85 1007.41 1007.27 1007.23 1007.21 1007.11 1006.62 1006.34 1006.19 1006.10 1006.01 1005.77 1005.81 1005.63 1005.63 1005.32 1004.93 1004.28 1003.86 1003.85 1003.93 1004.24 1004.63 1004.97 1005.39 1005.73
1008.30 1008.05 1008.06 1008.15 1007.29 1008.16 1008.80 1009.03 1009.19 1009.42 1009.42 1009.25 1009.18 1009.07 1009.01 1008.92 1008.57 1008.29 1007.76 1007.29 1007.19 1007.16 1007.00 1006.90 1006.23 1005.89 1005.77 1005.82 1005.79 1005.40 1005.13 1005.16 1004.91 1004.95 1004.52 1004.08 1003.64 1003.43 1003.41 1003.91 1004.47 1004.70 1004.97 1004.99
1008.17 1008.78 1009.13 1009.29 1008.44 1008.71 1008.89 1009.27 1009.82 1009.83 1009.90 1009.95 1009.94 1009.67 1009.23 1008.84 1008.63 1008.30 1007.76 1007.19 1006.68 1006.48 1006.59 1006.71 1006.20 1005.64 1005.25 1005.33 1005.38 1005.22 1004.87 1004.59 1004.42 1004.07 1003.64 1003.25 1002.73 1002.99 1003.07 1003.36 1003.72 1003.43 1003.57 1003.97
1008.73 1009.01 1009.27 1009.27 1009.17 1009.26 1009.63 1009.83 1009.41 1009.66 1009.81 1009.81 1009.80 1009.36 1008.84 1008.45 1008.20 1007.86 1007.33 1006.99 1006.60 1006.48 1006.50 1006.29 1006.15 1005.63 1005.27 1004.93 1004.72 1004.82 1004.57 1004.35 1004.05 1003.74 1003.27 1002.73 1002.12 1002.22 1002.53 1002.73 1002.90 1003.45 1003.29 1003.09
1008.63 1008.80 1009.01 1008.97 1009.52 1009.86 1009.84 1009.70 1009.65 1009.48 1009.40 1009.30 1009.13 1008.80 1008.53 1007.91 1007.44 1007.33 1007.01 1006.73 1006.33 1006.06 1005.99 1005.97 1005.51 1005.12 1004.81 1004.69 1004.52 1004.11 1004.31 1004.24 1003.91 1003.46 1002.84 1001.80 1001.37 1002.20 1002.64 1003.32 1003.56 1003.96 1004.24 1004.73
Thickness
5828 5812 5808 5831 5845 5834 5820 5814 5813 5829 5838 5824 5825 5829 5844 5857 5854 5843 5842 5841 5838 5832 5835 5832 5828 5825 5822 5817 5805 5798 5793 5791 5784 5780 5774 5782 5776 5776 5773 5767 5767 5769 5768 5768
5820 5804 5830 5841 5833 5819 5818 5814 5816 5834 5840 5832 5833 5831 5851 5860 5859 5857 5849 5848 5847 5843 5839 5833 5827 5825 5821 5816 5810 5802 5797 5790 5785 5782 5783 5785 5782 5779 5777 5773 5768 5768 5768 5768
5807 5830 5832 5824 5819 5813 5819 5815 5823 5815 5829 5845 5838 5839 5843 5857 5860 5862 5863 5864 5861 5854 5845 5838 5830 5826 5822 5815 5809 5802 5797 5792 5786 5791 5788 5785 5781 5779 5776 5773 5770 5770 5769 5770
5818 5838 5824 5817 5815 5825 5815 5843 5828 5817 5813 5805 5847 5810 5832 5846 5850 5859 5867 5866 5865 5861 5856 5849 5838 5829 5826 5820 5813 5806 5798 5794 5791 5789 5789 5779 5773 5774 5777 5777 5776 5776 5769 5769
5818 5819 5814 5811 5821 5833 5821 5836 5828 5824 5817 5825 5848 5831 5826 5850 5846 5854 5868 5875 5874 5869 5863 5854 5846 5838 5834 5827 5816 5809 5800 5796 5795 5791 5789 5782 5774 5777 5779 5781 5780 5775 5772 5769
5823 5842 5832 5830 5836 5836 5838 5827 5832 5838 5839 5818 5838 5832 5840 5835 5839 5850 5863 5870 5873 5871 5867 5860 5855 5846 5836 5834 5823 5813 5803 5796 5793 5790 5788 5785 5780 5776 5777 5776 5777 5771 5775 5771
5826 5829 5841 5838 5822 5835 5827 5818 5812 5812 5814 5823 5842 5827 5847 5847 5852 5859 5857 5863 5868 5870 5866 5859 5852 5845 5839 5834 5826 5818 5806 5796 5794 5790 5789 5787 5785 5782 5778 5776 5775 5777 5772 5772
5820 5806 5830 5842 5825 5830 5828 5829 5817 5793 5810 5815 5844 5818 5836 5857 5862 5866 5866 5866 5865 5865 5867 5861 5855 5849 5842 5837 5830 5819 5807 5800 5797 5794 5791 5788 5786 5784 5783 5780 5782 5781 5776 5775
5814 5816 5837 5838 5842 5838 5831 5812 5851 5825 5841 5824 5841 5848 5863 5860 5861 5866 5857 5857 5855 5858 5865 5862 5859 5854 5849 5840 5833 5821 5813 5805 5800 5798 5793 5789 5787 5785 5787 5784 5782 5781 5783 5781
5819 5798 5836 5836 5837 5838 5829 5846 5810 5829 5789 5785 5819 5812 5833 5844 5850 5853 5850 5847 5846 5853 5855 5862 5862 5856 5853 5847 5839 5827 5821 5812 5806 5803 5797 5792 5791 5789 5789 5787 5781 5783 5782 5781
5818 5809 5816 5828 5820 5824 5824 5814 5822 5830 5826 5800 5800 5812 5841 5835 5842 5835 5835 5835 5835 5839 5843 5850 5859 5860 5855 5851 5843 5834 5825 5816 5810 5808 5804 5798 5795 5793 5789 5788 5786 5783 5783 5782
5812 5800 5792 5811 5842 5850 5832 5817 5818 5804 5803 5819 5807 5811 5851 5846 5836 5832 5822 5823 5824 5826 5831 5841 5850 5851 5850 5846 5842 5836 5830 5823 5816 5812 5807 5801 5798 5795 5791 5789 5788 5785 5781 5781
5797 5790 5778 5797 5830 5842 5817 5817 5824 5816 5818 5798 5790 5810 5846 5832 5821 5817 5812 5812 5813 5813 5816 5822 5827 5833 5834 5835 5836 5832 5828 5825 5823 5817 5810 5804 5799 5794 5792 5790 5790 5786 5783 5781
5774 5782 5776 5771 5791 5803 5785 5795 5802 5799 5784 5793 5799 5812 5824 5791 5783 5794 5795 5799 5799 5799 5801 5802 5806 5806 5812 5819 5822 5825 5823 5823 5822 5819 5814 5807 5802 5799 5797 5795 5791 5790 5787 5783
5775 5764 5776 5782 5786 5787 5783 5780 5783 5776 5781 5767 5780 5782 5799 5810 5777 5774 5778 5783 5781 5778 5781 5786 5789 5793 5796 5800 5805 5809 5814 5814 5817 5815 5812 5809 5806 5803 5800 5798 5792 5788 5786 5783
5777 5751 5757 5755 5770 5773 5767 5775 5777 5776 5775 5771 5772 5767 5782 5781 5774 5759 5760 5764 5758 5758 5762 5768 5775 5780 5784 5787 5791 5796 5800 5803 5805 5807 5807 5808 5806 5801 5798 5795 5792 5787 5783 5781
5754 5752 5745 5740 5765 5758 5745 5764 5767 5768 5765 5760 5743 5745 5747 5743 5739 5739 5736 5740 5737 5739 5743 5748 5757 5763 5770 5777 5782 5779 5788 5795 5794 5793 5795 5799 5802 5798 5795 5792 5790 5787 5782 5779
5747 5740 5738 5731 5740 5713 5755 5759 5749 5743 5743 5746 5732 5733 5726 5722 5722 5727 5723 5718 5717 5722 5726 5732 5740 5747 5756 5765 5770 5773 5778 5778 5785 5780 5784 5787 5791 5795 5793 5791 5789 5785 5782 5780
5755 5738 5728 5720 5726 5743 5747 5728 5724 5717 5716 5726 5709 5710 5708 5707 5708 5711 5703 5703 5705 5710 5716 5722 5729 5733 5740 5748 5756 5760 5768 5769 5757 5760 5762 5773 5782 5787 5790 5789 5787 5786 5782 5780
5745 5734 5715 5717 5698 5691 5718 5713 5719 5715 5687 5697 5694 5689 5685 5687 5678 5693 5699 5697 5698 5701 5706 5709 5715 5720 5727 5734 5740 5745 5750 5755 5758 5759 5757 5761 5778 5783 5786 5789 5786 5785 5783 5780
5718 5707 5705 5711 5702 5711 5704 5701 5706 5668 5666 5681 5681 5677 5675 5669 5674 5683 5690 5687 5690 5693 5694 5700 5703 5706 5712 5720 5725 5724 5732 5736 5745 5752 5750 5755 5775 5778 5783 5784 5783 5781 5779 5779
5702 5697 5701 5705 5684 5670 5691 5687 5665 5673 5677 5675 5673 5671 5668 5672 5676 5677 5682 5685 5685 5685 5687 5691 5694 5698 5704 5708 5711 5715 5718 5728 5730 5742 5751 5762 5770 5775 5778 5779 5777 5778 5775 5773
5685 5696 5687 5684 5689 5688 5683 5676 5676 5673 5667 5668 5666 5668 5665 5664 5667 5672 5675 5678 5678 5678 5679 5682 5687 5691 5696 5697 5699 5702 5711 5719 5725 5728 5739 5749 5758 5766 5769 5766 5765 5767 5768 5769
5695 5692 5675 5667 5679 5676 5674 5671 5662 5661 5656 5658 5656 5656 5660 5657 5661 5662 5668 5671 5675 5676 5671 5671 5675 5678 5684 5690 5691 5694 5701 5709 5713 5720 5731 5742 5752 5754 5762 5764 5766 5772 5772 5769
5685 5678 5664 5660 5665 5664 5660 5655 5658 5655 5653 5651 5650 5652 5654 5655 5654 5655 5658 5661 5665 5665 5664 5665 5662 5665 5669 5677 5683 5685 5691 5696 5700 5708 5718 5732 5745 5749 5754 5759 5759 5760 5766 5768
5680 5668 5658 5650 5655 5647 5647 5650 5650 5647 5647 5648 5646 5647 5650 5653 5653 5652 5652 5653 5654 5654 5653 5651 5653 5653 5658 5663 5667 5677 5680 5683 5686 5694 5706 5723 5736 5737 5742 5735 5736 5739 5736 5738